Location: Peterborough
(44.3091°N, 78.3197°W)
Time: 10:52:18
(UTC-04:00)

A-11 Canister half - Pass Details

Date: 19 September 2024
Orbit: 1515 x 1684 km, 47.2° (Epoch: 02 October)

Event Time Altitude Azimuth Distance (km) Brightness Sun altitude
Rises 01:25:31 0° 294° (WNW) 4,665 11.7 -44.2°
Reaches altitude 10° 01:28:44 10° 288° (WNW) 3,677 11.0 -44.2°
Enters shadow 01:29:27 13° 286° (WNW) 3,464 10.9 -44.1°
